• In Czech Republic
  • List of Countries
  • For 7 days
  • Water Temperature
  • Satellite Maps
  • Weather Map
  • Weather Widgets
  • user-avatar
    Login

    Hourly Weather Siempang

    Today, 23 February, Friday

    Time Temperature Precipitation Wind Pressure Humidity
    00:00 +26°C° 0.2 mm 1 mps 752 mmHg 81%
    01:00 +26°C° 0 mm 1 mps 752 mmHg 84%
    02:00 +25°C° 0.1 mm 1 mps 752 mmHg 85%
    03:00 +25°C° 0.1 mm 1 mps 752 mmHg 85%
    04:00 +25°C° 0.1 mm 1 mps 752 mmHg 86%
    05:00 +25°C° 0 mm 1 mps 752 mmHg 85%
    06:00 +25°C° 0 mm 1 mps 753 mmHg 84%
    07:00 +25°C° 0 mm 1 mps 753 mmHg 83%
    08:00 +28°C° 0 mm 1 mps 753 mmHg 70%
    09:00 +31°C° 0 mm 2 mps 753 mmHg 57%
    10:00 +35°C° 0 mm 2 mps 753 mmHg 44%
    11:00 +36°C° 0 mm 2 mps 753 mmHg 38%
    12:00 +38°C° 0 mm 2 mps 752 mmHg 33%
    13:00 +40°C° 0 mm 1 mps 752 mmHg 28%
    14:00 +40°C° 0 mm 1 mps 751 mmHg 28%
    15:00 +39°C° 0 mm 1 mps 751 mmHg 28%
    16:00 +39°C° 0 mm 1 mps 750 mmHg 28%
    17:00 +36°C° 0 mm 1 mps 750 mmHg 32%
    18:00 +34°C° 0 mm 1 mps 751 mmHg 37%
    19:00 +32°C° 0 mm 1 mps 751 mmHg 41%
    20:00 +32°C° 0 mm 1 mps 752 mmHg 45%
    21:00 +31°C° 0 mm 1 mps 752 mmHg 49%
    22:00 +30°C° 0 mm 2 mps 753 mmHg 53%
    23:00 +29°C° 0 mm 1 mps 753 mmHg 56%

    Tomorrow, 24 February, Saturday

    Time Temperature Precipitation Wind Pressure Humidity
    00:00 +28°C° 0 mm 1 mps 753 mmHg 60%
    01:00 +27°C° 0 mm 1 mps 753 mmHg 63%
    02:00 +26°C° 0 mm 1 mps 753 mmHg 67%
    03:00 +26°C° 0 mm 1 mps 753 mmHg 70%
    04:00 +25°C° 0 mm 1 mps 753 mmHg 73%
    05:00 +25°C° 0 mm 1 mps 753 mmHg 73%
    06:00 +25°C° 0 mm 1 mps 753 mmHg 74%
    07:00 +25°C° 0 mm 1 mps 754 mmHg 74%
    08:00 +28°C° 0 mm 1 mps 754 mmHg 63%
    09:00 +31°C° 0 mm 2 mps 754 mmHg 52%
    10:00 +35°C° 0 mm 2 mps 754 mmHg 41%
    11:00 +37°C° 0 mm 2 mps 754 mmHg 36%
    12:00 +39°C° 0 mm 2 mps 753 mmHg 30%
    13:00 +41°C° 0 mm 1 mps 752 mmHg 25%
    14:00 +41°C° 0 mm 1 mps 751 mmHg 24%
    15:00 +41°C° 0 mm 1 mps 751 mmHg 23%
    16:00 +41°C° 0 mm 1 mps 750 mmHg 22%
    17:00 +39°C° 0 mm 1 mps 750 mmHg 26%
    18:00 +35°C° 0 mm 1 mps 751 mmHg 31%
    19:00 +33°C° 0 mm 1 mps 751 mmHg 35%
    20:00 +32°C° 0 mm 1 mps 752 mmHg 38%
    21:00 +31°C° 0 mm 1 mps 752 mmHg 42%
    22:00 +30°C° 0 mm 1 mps 753 mmHg 45%
    23:00 +29°C° 0 mm 1 mps 753 mmHg 50%

    Day after tomorrow, 25 February, Sunday

    Time Temperature Precipitation Wind Pressure Humidity
    00:00 +28°C° 0 mm 1 mps 753 mmHg 54%
    01:00 +27°C° 0 mm 1 mps 753 mmHg 58%
    02:00 +27°C° 0 mm 1 mps 753 mmHg 62%
    03:00 +26°C° 0 mm 1 mps 752 mmHg 66%
    04:00 +25°C° 0 mm 1 mps 752 mmHg 70%
    05:00 +25°C° 0 mm 1 mps 753 mmHg 71%
    06:00 +25°C° 0 mm 1 mps 753 mmHg 72%
    07:00 +25°C° 0 mm 1 mps 754 mmHg 73%
    08:00 +28°C° 0 mm 1 mps 754 mmHg 63%
    09:00 +31°C° 0 mm 2 mps 754 mmHg 52%
    10:00 +35°C° 0 mm 2 mps 754 mmHg 41%
    11:00 +36°C° 0 mm 1 mps 753 mmHg 35%
    12:00 +40°C° 0 mm 1 mps 752 mmHg 28%
    13:00 +42°C° 0 mm 1 mps 750 mmHg 22%
    14:00 +42°C° 0 mm 1 mps 750 mmHg 22%
    15:00 +41°C° 0 mm 1 mps 749 mmHg 22%
    16:00 +41°C° 0 mm 1 mps 749 mmHg 22%
    17:00 +39°C° 0 mm 1 mps 749 mmHg 27%
    18:00 +35°C° 0 mm 1 mps 750 mmHg 32%
    19:00 +33°C° 0 mm 1 mps 750 mmHg 37%
    20:00 +32°C° 0 mm 1 mps 751 mmHg 41%
    21:00 +32°C° 0 mm 2 mps 752 mmHg 45%
    22:00 +31°C° 0 mm 2 mps 752 mmHg 49%
    23:00 +30°C° 0 mm 2 mps 752 mmHg 53%

    26 February, Monday

    Time Temperature Precipitation Wind Pressure Humidity
    00:00 +28°C° 0 mm 2 mps 752 mmHg 57%
    01:00 +27°C° 0 mm 1 mps 752 mmHg 62%
    02:00 +27°C° 0 mm 1 mps 752 mmHg 64%
    03:00 +26°C° 0 mm 1 mps 752 mmHg 67%
    04:00 +25°C° 0 mm 1 mps 751 mmHg 70%
    05:00 +25°C° 0 mm 1 mps 752 mmHg 71%
    06:00 +25°C° 0 mm 1 mps 752 mmHg 71%
    07:00 +25°C° 0 mm 1 mps 753 mmHg 71%
    08:00 +28°C° 0 mm 1 mps 753 mmHg 61%
    09:00 +31°C° 0 mm 1 mps 753 mmHg 51%
    10:00 +34°C° 0 mm 1 mps 754 mmHg 41%
    11:00 +36°C° 0 mm 1 mps 753 mmHg 35%
    12:00 +39°C° 0 mm 1 mps 751 mmHg 30%
    13:00 +42°C° 0 mm 1 mps 750 mmHg 24%
    14:00 +41°C° 0 mm 1 mps 750 mmHg 24%
    15:00 +40°C° 0 mm 1 mps 749 mmHg 25%
    16:00 +40°C° 0 mm 1 mps 748 mmHg 25%
    17:00 +37°C° 0 mm 1 mps 749 mmHg 30%
    18:00 +34°C° 0 mm 1 mps 749 mmHg 35%
    19:00 +32°C° 0 mm 1 mps 750 mmHg 39%
    20:00 +31°C° 0 mm 1 mps 751 mmHg 43%
    21:00 +31°C° 0 mm 2 mps 751 mmHg 46%
    22:00 +30°C° 0 mm 2 mps 752 mmHg 50%
    23:00 +29°C° 0 mm 2 mps 752 mmHg 54%

    27 February, Tuesday

    Time Temperature Precipitation Wind Pressure Humidity
    00:00 +28°C° 0 mm 2 mps 752 mmHg 59%
    01:00 +27°C° 0 mm 1 mps 751 mmHg 63%
    02:00 +26°C° 0 mm 1 mps 751 mmHg 66%
    03:00 +26°C° 0 mm 1 mps 751 mmHg 69%
    04:00 +25°C° 0 mm 1 mps 751 mmHg 72%
    05:00 +25°C° 0 mm 1 mps 752 mmHg 72%
    06:00 +25°C° 0 mm 1 mps 752 mmHg 72%
    07:00 +25°C° 0 mm 1 mps 753 mmHg 72%
    08:00 +28°C° 0 mm 1 mps 753 mmHg 61%
    09:00 +31°C° 0 mm 1 mps 753 mmHg 50%
    10:00 +35°C° 0 mm 1 mps 753 mmHg 39%
    11:00 +37°C° 0 mm 1 mps 751 mmHg 34%
    12:00 +41°C° 0 mm 1 mps 750 mmHg 28%
    13:00 +41°C° 0 mm 0 mps 749 mmHg 23%
    14:00 +40°C° 0 mm 0 mps 748 mmHg 23%
    15:00 +39°C° 0 mm 0 mps 748 mmHg 24%
    16:00 +41°C° 0 mm 1 mps 747 mmHg 24%
    17:00 +36°C° 0 mm 0 mps 748 mmHg 28%
    18:00 +33°C° 0 mm 0 mps 748 mmHg 33%
    19:00 +30°C° 0 mm 0 mps 749 mmHg 38%
    20:00 +32°C° 0 mm 1 mps 749 mmHg 41%
    21:00 +31°C° 0 mm 1 mps 750 mmHg 44%
    22:00 +30°C° 0 mm 1 mps 750 mmHg 47%
    23:00 +30°C° 0 mm 1 mps 750 mmHg 51%

    28 February, Wednesday

    Time Temperature Precipitation Wind Pressure Humidity
    00:00 +29°C° 0 mm 1 mps 750 mmHg 55%
    01:00 +28°C° 0 mm 1 mps 750 mmHg 60%
    02:00 +28°C° 0 mm 1 mps 750 mmHg 62%
    03:00 +27°C° 0 mm 1 mps 750 mmHg 65%
    04:00 +26°C° 0 mm 1 mps 750 mmHg 68%
    05:00 +26°C° 0 mm 1 mps 751 mmHg 68%
    06:00 +26°C° 0 mm 1 mps 751 mmHg 69%
    07:00 +26°C° 0 mm 1 mps 751 mmHg 69%
    08:00 +30°C° 0 mm 1 mps 752 mmHg 59%
    09:00 +33°C° 0 mm 1 mps 752 mmHg 49%
    10:00 +36°C° 0 mm 1 mps 752 mmHg 39%
    11:00 +39°C° 0 mm 1 mps 751 mmHg 34%
    12:00 +39°C° 0 mm 0 mps 750 mmHg 29%
    13:00 +41°C° 0 mm 0 mps 749 mmHg 24%
    14:00 +39°C° 0 mm 0 mps 748 mmHg 26%
    15:00 +41°C° 0 mm 1 mps 748 mmHg 28%
    16:00 +39°C° 0 mm 1 mps 747 mmHg 30%
    17:00 +37°C° 0 mm 1 mps 748 mmHg 34%
    18:00 +35°C° 0 mm 1 mps 748 mmHg 38%
    19:00 +33°C° 0 mm 1 mps 749 mmHg 43%
    20:00 +32°C° 0.2 mm 1 mps 749 mmHg 47%
    21:00 +31°C° 0.2 mm 1 mps 750 mmHg 52%
    22:00 +30°C° 0.2 mm 2 mps 750 mmHg 57%
    23:00 +30°C° 0.5 mm 2 mps 750 mmHg 60%
    Show more